Location: Unspecified
(0.0000°N, 0.0000°E)
Time: 16:57:47
(UTC+00:00)

Courier 1B Rocket - Pass Details

Date: 19 April 2021
Orbit: 920 x 1202 km, 28.3° (Epoch: 14 May)

Event Time Altitude Azimuth Distance (km) Brightness Sun altitude
Exits shadow 04:36:21 29° 280° (W) 2,002 6.1 -20.3°
Maximum altitude 04:40:24 62° 211° (SSW) 1,304 5.4 -19.3°
Drops below altitude 10° 04:47:48 10° 131° (SE) 2,999 8.0 -17.5°
Sets 04:50:33 0° 127° (SE) 3,920 8.8 -16.8°
